FENGYUN 1C DEB

Satellite information

Favourite Embed

Satellite Type and Status

DEBRISIN ORBIT

Key statistics

Satellite FENGYUN 1C DEB at a glance.

Uptime

9715

Days in orbit

Revolutions

≈ 14.0

Per day

Orbit

SSO

Sun Synchronous Orbit

Inclination

98.4

Latest

Satellite identification and parameters

Extended collection of information and parameters for FENGYUN 1C DEB.

Object identification

Identified? True

Debris? True

Object name: FENGYUN 1C DEB

International designator: 1999-025AAB

Object number (NORAD): 30314

Object ID (CCSDS): 30314

Country: PEOPLES REPUBLIC OF CHINA (PRC)

Current information (Y/N): Y

RCS size: SMALL

Orbital parameters

Period: 102.77 minutes

Inclination: 98.3809 deg

SMA: 7267.829 km

Apoapsis: 993.191 km

Periapsis: 786.196 km

RAAN: 176.4445 deg

Eccentricy: 0.01424052

Argument of periapsis: 1.4637 deg

Mean anomaly: 358.6919 deg

Mean motion: 14.0118585 rev/day

Mean motion (dot): 0.00002699 rev/day2

B* drag term: 0.0016680196 1/REarth

Two-line elements (TLE)

Creation date: Dec. 11, 2025, 7:14 p.m.

Reference frame: TEME

Reference center: EARTH

Epoch: Dec. 11, 2025, 11:23 a.m. UTC

TLE line 0: 0 FENGYUN 1C DEB

TLE line 1: 1 30314U 99025AAB 25345.47451721 .00002699 00000-0 16680-2 0 9995

TLE line 2: 2 30314 98.3809 176.4445 0142405 1.4637 358.6919 14.01185850960917

Live tracking on map

Real-time ground track for satellite FENGYUN 1C DEB.

In-orbit conjunctions

A list of the most updated potential collisions computed for object FENGYUN 1C DEB.

Target Orbit TCA Probability of collision Miss distance Type
CZ-2D DEB SSO 2025-10-05 03:56:17 0.0001867702 86.0 (m) DEBRIS
SL-8 R/B LEO 2025-03-06 18:25:06 0.0001174531 189.0 (m) ROCKET BODY
CZ-6A DEB SSO 2025-02-28 13:58:54 0.0001091738 103.0 (m) DEBRIS

Associated space launch

Chinese polar orbiting meteorological satellite

FENGYUN 1C DEB was lifted into orbit during the mission ‘Long March 4B | Feng Yun 1C’, on board a Long March 4B space rocket.

The launch took place on May 10, 1999, 1:33 a.m. from Launch Complex 7.

For more information about the launch, click the button.

Launch to space Long March 4B | Feng Yun 1C
Long March 4B | Feng Yun 1C

Agency: N/A

Status: Launch Successful

Launch date: May 10, 1999, 1:33 a.m. UTC

Rocket: Long March 4B

Launch pad: Launch Complex 7

Location: Taiyuan Satellite Launch Center, People's Republic of China

...

Latest news about this satellite

There are no fresh news available about this satellite. Check back as we update our databases every day.


Newsletter sign-up

Weekly statistics, charts and insights to help you stay on top of the space industry.